Погода в Городовиковске

Погода в Городовиковске : погода сейчас, прогноз погоды и архив. Всё, что Вы хотите узнать о погоде в Городовиковске!

Хотите узнать прогноз погоды в Городовиковске? Тогда Вам сюда: Погода в Городовиковске

Поиск расширенной информации на нашем сайте:

Другие новости

Новости СМИ2

Главная страница сайта

Новости сайта

03.07.2017

Напоминаем, что на нашем специализированном сайте Метеоцентр.Азия вы можете получить высокодетализированные автоматические прогнозы погоды по пунктам России, СНГ и мира в авиационном формате (включающие направление и скорость ветра, видимость, явления погоды, количество и форму облачности, нижнюю и верхнюю границу облачности).


Погода в Городовиковске - сегодня

Время (UTC), дата Ветер
(°,м/с) 
Видим.   Явления Облачность Т
(°С)
Тd
(°С)
f(%) Тe
(°С)
Pmin
(гПа)
dP
(гПа)
Po
(мм)
O2
(г/м3)
Тmin Tmax R s Состояние
почвы
21 21.04.18 240 (ЮЗ) 20000 м    4/0 верхняя 
[Ci fib]
+9.7 +5.2 74 +10  1011.5  -0.4  751  291           
00 22.04.18 240 (ЮЗ) 20000 м    ясно 
+8.4 +3.8 73 +8  1009.9  -1.6  750  292           
03 22.04.18 230 (ЮЗ) 4-10{10}  20000 м    6/3 600 м средняя, верхняя 
[Sc|Ac trans|Ci fib]
+8.4 +4.4 76 +7  1007.8  -2  748  292  +7.2        влажная 
06 22.04.18 250 (З) 6-12{15}  20000 м    10/6 600 м средняя, верхняя 
[Sc|Ac trans|Ci]
+13.6 +5.4 58 +13  1006.8  -0.9  747  286           
09 22.04.18 280 (З) 8-16{16}  20000 м  {ливн. осадки}  10/8 600 м средняя 
[Sc|Ac As]
+16.3 +4.1 44 +16  1006.2  -0.5  747  283           
12 22.04.18 270 (З) 6-16{19}  20000 м  {ливн. осадки}  10/8 600 м средняя 
[Sc|Ac As]
+16.9 +2.4 38 +17  1005.9  -0.3  747  283           
15 22.04.18 250 (З) 7-15  20000 м    4/3 600 м средняя 
[Sc|Ac cast]
+16.2 +4.6 46 +16  1005.6  -0.3  747  283    +18  0.0     
18 22.04.18 250 (З) 6-14{15}  20000 м    3/0 средняя 
[Ac trans]
+12.8 +3.1 52 +12  1007.7  748  287           
21 22.04.18 260 (З) 5{15}  20000 м    8/4 600 м средняя 
[Sc|Ac trans]
+10.5 +3.8 63 +9  1008.6  0.8  749  290           
00 23.04.18 270 (З) 4{11}  20000 м    ясно 
+9.7 +5 72 +9  1008.9  0.2  749  291           
03 23.04.18 260 (З) 20000 м    9/8 600 м средняя 
[Sc|Ac cast]
+8.4 +5.1 80 +8  1009.8  0.9  749  292  +8.1        сухая 
06 23.04.18 280 (З) 20000 м    8/6 600 м средняя 
[Sc|Ac trans]
+11.9 +6.8 71 +11  1010.7  750  289           
09 23.04.18 280 (З) 20000 м  {ливн. осадки}  10/10 600 м кучево-дожд. 
[Cb calv]
+13.8 +3.9 51 +14  1010.9  0.2  750  287           
12 23.04.18 290 (З) 20000 м  {ливн. осадки}  8/6 600 м средняя 
[Sc diur, vesp|Ac trans]
+16.4 +3.6 42 +16  1009.5  -1.2  749  284           
15 23.04.18 350 (С) 4{12}  20000 м    6/4 600 м средняя 
[Sc|Ac trans]
+13.1 +3.5 52 +13  1011.8  2.1  751  288    +16.7  0.8     
18 23.04.18 090 (В) 20000 м    6/0 средняя 
[Ac trans]
+6.3 +3.4 82 +7  1015.1  3.1  753  296           
21 23.04.18 тихо ()   4000 м  дымка  4/0 средняя 
[Ac trans]
+2.3 +1.5 94 +2  1016.6  1.3  754  301           
00 24.04.18 020 (С) 4000 м  дымка  ясно 
+2.3 +1.7 96 +3  1017.5  0.9  755  301           
03 24.04.18 100 (В) 20000 м    3/0 средняя 
[Ac trans]
+3.4 +1.3 86 +3  1018.4  0.9  756  301  +0.2        сухая 
06 24.04.18 160 (Ю) 20000 м    ясно 
+10.6 +1.7 54 +11  1019.7  1.6  757  293           
09 24.04.18 270 (З) 20000 м    8/0 средняя 
[Ac trans]
+15.5 +1.7 39 +16  1019.6  757  288           
12 24.04.18 290 (З) 20000 м    8/0 средняя, верхняя 
[Ac trans|Ci]
+17.3 -0.4 30 +18  1018.7  -0.8  756  287           
15 24.04.18 290 (З) 20000 м    10/0 средняя, верхняя 
[Ac trans|Ci]
+17.9 -0.5 29 +19  1017.6  -1.1  755  286    +18.1       
18 24.04.18 170 (Ю) 20000 м    10/3 600 м средняя, верхняя 
[Sc|Ac trans|Ci fib]
+11.8 +2.5 53 +13  1017.7  -0.1  755  291           
21 24.04.18 200 (Ю) 20000 м    10/8 600 м средняя 
[Sc|Ac As]
+12.3 +4.8 60 +14  1016.8  -0.8  755  290           
Время (UTC), дата Ветер
(°,м/с) 
Видим.   Явления Облачность Т
(°С)
Тd
(°С)
f(%) Тe
(°С)
Pmin
(гПа)
dP
(гПа)
Po
(мм)
O2
(г/м3)
Тmin Tmax R s Состояние
почвы

Для получения пояснительной информации подведите курсор к названию столбца.

ПОГОДА в Городовиковске - архив

Всё, что Вы хотите узнать о погоде в Городовиковске - удобно и подробно!

Выберите нужную дату (начиная с 1 января 2015* года) и нажмите кнопку "Найти".
Будут отображены архивные сводки погоды по пункту Городовиковск, начиная с указанной даты.


Отображать данные в формате CSV (для использования в таблицах Excel)


Внимание! Наш архив погоды предназначен исключительно для личного некоммерческого использования в познавательных целях. Если Вам необходимы официальные справки о состоянии погоды (для производственных, юридических, коммерческих и т.п. целей), обращайтесь в органы Росгидромета.

*Примечание: данная дата относится к архиву по метеостанциям СССР (Россия, СНГ, Балтия).
Архив по метеостанциям Зарубежной Европы и Азии (кроме Китая) хранится 10 дней, по другим регионам земного шара (Китай, Африка, Америка, Австралия, Океания) - 1 день.

Городовиковск - район местоположения метеостанции


Название, широта, долгота, высота метеостанции:
Городовиковск 46.1°ш. 41.1°д. 86 м над ур. моря [Российская Федерация]

Дополнительная информация

В oтличие oт бoльшинства пoгoдных сайтoв мы публикуем пoдрoбную метеoинфoрмацию в детальнoм прoфессиoнальнoм фoрмате.

Характеристики температуры и влажнoсти вoздуха измеряются на высoте 2 м в тени вдали oт зданий и деревьев.
Скoрoсть ветра измеряется на высoте 10 м (на урoвне рoста челoвека скoрoсть ветра ниже в 1.5-2 раза). Если метеoстанция нахoдится в гoрoде или в лесу, тo скoрoсть ветра занижена на 2-4 м/с пo сравнению с oткрытым местoм. Скoрoсть ветра над акватoриями крупных рек и oзёр, а также на вершинах хoлмoв на 2-5 м/с выше, чем в oбычных услoвиях.
Атмoсфернoе давление в разных тoчках местнoсти мoжет значительнo oтличаться oт давления на метеoстанции, в зависимoсти oт услoвий рельефа (при пoдъёме на 10 м давление пoнижается примернo на 1 мм рт.ст.).